Year,Month,Day,Hour,Minute,Value (Times are PST for temperature in C)
2011,06,24,00,00,13.00
2011,06,24,00,01,13.00
2011,06,24,00,02,12.90
2011,06,24,00,03,12.90
2011,06,24,00,04,12.90
2011,06,24,00,05,12.90
2011,06,24,00,06,12.90
2011,06,24,00,07,12.90
2011,06,24,00,08,12.90
2011,06,24,00,09,12.90
2011,06,24,00,10,12.90
2011,06,24,00,11,12.90
2011,06,24,00,12,12.90
2011,06,24,00,13,12.90
2011,06,24,00,14,12.90
2011,06,24,00,15,12.90
2011,06,24,00,16,12.90
2011,06,24,00,17,12.90
2011,06,24,00,18,12.90
2011,06,24,00,19,12.90
2011,06,24,00,20,12.90
2011,06,24,00,21,12.90
2011,06,24,00,22,12.80
2011,06,24,00,23,12.80
2011,06,24,00,24,12.90
2011,06,24,00,25,12.80
2011,06,24,00,26,12.80
2011,06,24,00,27,12.80
2011,06,24,00,28,12.80
2011,06,24,00,29,12.80
2011,06,24,00,30,12.80
2011,06,24,00,31,12.80
2011,06,24,00,32,12.80
2011,06,24,00,33,12.80
2011,06,24,00,34,12.80
2011,06,24,00,35,12.80
2011,06,24,00,36,12.80
2011,06,24,00,37,12.80
2011,06,24,00,38,12.80
2011,06,24,00,39,12.80
2011,06,24,00,40,12.80
2011,06,24,00,41,12.80
2011,06,24,00,42,12.80
2011,06,24,00,43,12.80
2011,06,24,00,44,12.80
2011,06,24,00,45,12.80
2011,06,24,00,46,12.80
2011,06,24,00,47,12.80
2011,06,24,00,48,12.80
2011,06,24,00,49,12.80
2011,06,24,00,50,12.80
2011,06,24,00,51,12.80
2011,06,24,00,52,12.80
2011,06,24,00,53,12.80
2011,06,24,00,54,12.80
2011,06,24,00,55,12.80
2011,06,24,00,56,12.80
2011,06,24,00,57,12.80
2011,06,24,00,58,12.80
2011,06,24,00,59,12.80
2011,06,24,01,00,12.80
2011,06,24,01,01,12.80
2011,06,24,01,02,12.80
2011,06,24,01,03,12.80
2011,06,24,01,04,12.80
2011,06,24,01,05,12.80
2011,06,24,01,06,12.80
2011,06,24,01,07,12.80
2011,06,24,01,08,12.80
2011,06,24,01,09,12.80
2011,06,24,01,10,12.80
2011,06,24,01,11,12.80
2011,06,24,01,12,12.80
2011,06,24,01,13,12.80
2011,06,24,01,14,12.80
2011,06,24,01,15,12.80
2011,06,24,01,16,12.80
2011,06,24,01,17,12.80
2011,06,24,01,18,12.80
2011,06,24,01,19,12.80
2011,06,24,01,20,12.80
2011,06,24,01,21,12.80
2011,06,24,01,22,12.80
2011,06,24,01,23,12.80
2011,06,24,01,24,12.80
2011,06,24,01,25,12.80
2011,06,24,01,26,12.80
2011,06,24,01,27,12.70
2011,06,24,01,28,12.70
2011,06,24,01,29,12.70
2011,06,24,01,30,12.70
2011,06,24,01,31,12.70
2011,06,24,01,32,12.70
2011,06,24,01,33,12.70
2011,06,24,01,34,12.70
2011,06,24,01,35,12.70
2011,06,24,01,36,12.70
2011,06,24,01,37,12.70
2011,06,24,01,38,12.60
2011,06,24,01,39,12.60
2011,06,24,01,40,12.60
2011,06,24,01,41,12.60
2011,06,24,01,42,12.60
2011,06,24,01,43,12.60
2011,06,24,01,44,12.60
2011,06,24,01,45,12.60
2011,06,24,01,46,12.60
2011,06,24,01,47,12.60
2011,06,24,01,48,12.60
2011,06,24,01,49,12.60
2011,06,24,01,50,12.60
2011,06,24,01,51,12.60
2011,06,24,01,52,12.60
2011,06,24,01,53,12.60
2011,06,24,01,54,12.60
2011,06,24,01,55,12.60
2011,06,24,01,56,12.50
2011,06,24,01,57,12.50
2011,06,24,01,58,12.50
2011,06,24,01,59,12.50
2011,06,24,02,00,12.50
2011,06,24,02,01,12.50
2011,06,24,02,02,12.40
2011,06,24,02,03,12.40
2011,06,24,02,04,12.40
2011,06,24,02,05,12.40
2011,06,24,02,06,12.40
2011,06,24,02,07,12.30
2011,06,24,02,08,12.30
2011,06,24,02,09,12.30
2011,06,24,02,10,12.30
2011,06,24,02,11,12.30
2011,06,24,02,12,12.30
2011,06,24,02,13,12.30
2011,06,24,02,14,12.30
2011,06,24,02,15,12.30
2011,06,24,02,16,12.30
2011,06,24,02,17,12.30
2011,06,24,02,18,12.30
2011,06,24,02,19,12.30
2011,06,24,02,20,12.30
2011,06,24,02,21,12.30
2011,06,24,02,22,12.30
2011,06,24,02,23,12.30
2011,06,24,02,24,12.30
2011,06,24,02,25,12.30
2011,06,24,02,26,12.20
2011,06,24,02,27,12.20
2011,06,24,02,28,12.20
2011,06,24,02,29,12.20
2011,06,24,02,30,12.20
2011,06,24,02,31,12.10
2011,06,24,02,32,12.10
2011,06,24,02,33,12.10
2011,06,24,02,34,12.10
2011,06,24,02,35,12.10
2011,06,24,02,36,12.10
2011,06,24,02,37,12.10
2011,06,24,02,38,12.00
2011,06,24,02,39,12.00
2011,06,24,02,40,12.00
2011,06,24,02,41,12.00
2011,06,24,02,42,12.00
2011,06,24,02,43,12.00
2011,06,24,02,44,12.00
2011,06,24,02,45,12.00
2011,06,24,02,46,12.00
2011,06,24,02,47,12.00
2011,06,24,02,48,12.00
2011,06,24,02,49,12.00
2011,06,24,02,50,12.00
2011,06,24,02,51,12.00
2011,06,24,02,52,12.00
2011,06,24,02,53,12.00
2011,06,24,02,54,12.00
2011,06,24,02,55,12.00
2011,06,24,02,56,12.00
2011,06,24,02,57,12.00
2011,06,24,02,58,12.00
2011,06,24,02,59,12.00
2011,06,24,03,00,12.00
2011,06,24,03,01,12.00
2011,06,24,03,02,11.90
2011,06,24,03,03,11.90
2011,06,24,03,04,11.90
2011,06,24,03,05,11.90
2011,06,24,03,06,11.90
2011,06,24,03,07,11.90
2011,06,24,03,08,11.90
2011,06,24,03,09,11.90
2011,06,24,03,10,11.90
2011,06,24,03,11,11.90
2011,06,24,03,12,11.90
2011,06,24,03,13,11.90
2011,06,24,03,14,11.90
2011,06,24,03,15,11.90
2011,06,24,03,16,11.90
2011,06,24,03,17,11.90
2011,06,24,03,18,11.90
2011,06,24,03,19,11.90
2011,06,24,03,20,12.00
2011,06,24,03,21,12.00
2011,06,24,03,22,12.00
2011,06,24,03,23,12.00
2011,06,24,03,24,12.00
2011,06,24,03,25,12.00
2011,06,24,03,26,12.00
2011,06,24,03,27,12.00
2011,06,24,03,28,12.00
2011,06,24,03,29,12.00
2011,06,24,03,30,12.00
2011,06,24,03,31,12.00
2011,06,24,03,32,12.00
2011,06,24,03,33,12.00
2011,06,24,03,34,12.00
2011,06,24,03,35,12.00
2011,06,24,03,36,12.00
2011,06,24,03,37,11.90
2011,06,24,03,38,11.90
2011,06,24,03,39,11.90
2011,06,24,03,40,11.90
2011,06,24,03,41,11.90
2011,06,24,03,42,11.90
2011,06,24,03,43,11.90
2011,06,24,03,44,11.90
2011,06,24,03,45,11.90
2011,06,24,03,46,11.90
2011,06,24,03,47,11.90
2011,06,24,03,48,11.90
2011,06,24,03,49,11.90
2011,06,24,03,50,11.90
2011,06,24,03,51,11.90
2011,06,24,03,52,11.90
2011,06,24,03,53,11.80
2011,06,24,03,54,11.80
2011,06,24,03,55,11.80
2011,06,24,03,56,11.80
2011,06,24,03,57,11.80
2011,06,24,03,58,11.80
2011,06,24,03,59,11.80
2011,06,24,04,00,11.80
2011,06,24,04,01,11.80
2011,06,24,04,02,11.80
2011,06,24,04,03,11.80
2011,06,24,04,04,11.80
2011,06,24,04,05,11.80
2011,06,24,04,06,11.80
2011,06,24,04,07,11.80
2011,06,24,04,08,11.70
2011,06,24,04,09,11.70
2011,06,24,04,10,11.70
2011,06,24,04,11,11.70
2011,06,24,04,12,11.70
2011,06,24,04,13,11.70
2011,06,24,04,14,11.60
2011,06,24,04,15,11.60
2011,06,24,04,16,11.60
2011,06,24,04,17,11.60
2011,06,24,04,18,11.60
2011,06,24,04,19,11.60
2011,06,24,04,20,11.60
2011,06,24,04,21,11.60
2011,06,24,04,22,11.60
2011,06,24,04,23,11.60
2011,06,24,04,24,11.60
2011,06,24,04,25,11.60
2011,06,24,04,26,11.60
2011,06,24,04,27,11.60
2011,06,24,04,28,11.60
2011,06,24,04,29,11.60
2011,06,24,04,30,11.60
2011,06,24,04,31,11.60
2011,06,24,04,32,11.60
2011,06,24,04,33,11.60
2011,06,24,04,34,11.60
2011,06,24,04,35,11.60
2011,06,24,04,36,11.50
2011,06,24,04,37,11.40
2011,06,24,04,38,11.40
2011,06,24,04,39,11.40
2011,06,24,04,40,11.40
2011,06,24,04,41,11.40
2011,06,24,04,42,11.40
2011,06,24,04,43,11.40
2011,06,24,04,44,11.40
2011,06,24,04,45,11.40
2011,06,24,04,46,11.40
2011,06,24,04,47,11.40
2011,06,24,04,48,11.30
2011,06,24,04,49,11.30
2011,06,24,04,50,11.30
2011,06,24,04,51,11.30
2011,06,24,04,52,11.30
2011,06,24,04,53,11.20
2011,06,24,04,54,11.20
2011,06,24,04,55,11.20
2011,06,24,04,56,11.20
2011,06,24,04,57,11.10
2011,06,24,04,58,11.10
2011,06,24,04,59,11.10
2011,06,24,05,00,11.10
2011,06,24,05,01,11.10
2011,06,24,05,02,11.10
2011,06,24,05,03,11.10
2011,06,24,05,04,10.90
2011,06,24,05,05,10.90
2011,06,24,05,06,10.90
2011,06,24,05,07,10.90
2011,06,24,05,08,10.90
2011,06,24,05,09,10.90
2011,06,24,05,10,10.90
2011,06,24,05,11,10.90
2011,06,24,05,12,10.90
2011,06,24,05,13,10.90
2011,06,24,05,14,10.80
2011,06,24,05,15,10.80
2011,06,24,05,16,10.80
2011,06,24,05,17,10.80
2011,06,24,05,18,10.80
2011,06,24,05,19,10.80
2011,06,24,05,20,10.70
2011,06,24,05,21,10.70
2011,06,24,05,22,10.70
2011,06,24,05,23,10.70
2011,06,24,05,24,10.70
2011,06,24,05,25,10.70
2011,06,24,05,26,10.70
2011,06,24,05,27,10.70
2011,06,24,05,28,10.70
2011,06,24,05,29,10.70
2011,06,24,05,30,10.60
2011,06,24,05,31,10.60
2011,06,24,05,32,10.60
2011,06,24,05,33,10.60
2011,06,24,05,34,10.60
2011,06,24,05,35,10.70
2011,06,24,05,36,10.70
2011,06,24,05,37,10.70
2011,06,24,05,38,10.70
2011,06,24,05,39,10.70
2011,06,24,05,40,10.70
2011,06,24,05,41,10.70
2011,06,24,05,42,10.70
2011,06,24,05,43,10.70
2011,06,24,05,44,10.70
2011,06,24,05,45,10.70
2011,06,24,05,46,10.70
2011,06,24,05,47,10.70
2011,06,24,05,48,10.70
2011,06,24,05,49,10.70
2011,06,24,05,50,10.70
2011,06,24,05,51,10.80
2011,06,24,05,52,10.80
2011,06,24,05,53,10.80
2011,06,24,05,54,10.80
2011,06,24,05,55,10.90
2011,06,24,05,56,10.90
2011,06,24,05,57,10.90
2011,06,24,05,58,10.90
2011,06,24,05,59,10.90
2011,06,24,06,00,10.90
2011,06,24,06,01,11.00
2011,06,24,06,02,11.10
2011,06,24,06,03,11.10
2011,06,24,06,04,11.10
2011,06,24,06,05,11.10
2011,06,24,06,06,11.10
2011,06,24,06,07,11.20
2011,06,24,06,08,11.20
2011,06,24,06,09,11.20
2011,06,24,06,10,11.30
2011,06,24,06,11,11.30
2011,06,24,06,12,11.40
2011,06,24,06,13,11.40
2011,06,24,06,14,11.40
2011,06,24,06,15,11.40
2011,06,24,06,16,11.40
2011,06,24,06,17,11.40
2011,06,24,06,18,11.40
2011,06,24,06,19,11.50
2011,06,24,06,20,11.60
2011,06,24,06,21,11.60
2011,06,24,06,22,11.60
2011,06,24,06,23,11.60
2011,06,24,06,24,11.60
2011,06,24,06,25,11.60
2011,06,24,06,26,11.60
2011,06,24,06,27,11.60
2011,06,24,06,28,11.60
2011,06,24,06,29,11.60
2011,06,24,06,30,11.60
2011,06,24,06,31,11.60
2011,06,24,06,32,11.60
2011,06,24,06,33,11.60
2011,06,24,06,34,11.60
2011,06,24,06,35,11.60
2011,06,24,06,36,11.60
2011,06,24,06,37,11.60
2011,06,24,06,38,11.60
2011,06,24,06,39,11.60
2011,06,24,06,40,11.60
2011,06,24,06,41,11.60
2011,06,24,06,42,11.60
2011,06,24,06,43,11.60
2011,06,24,06,44,11.60
2011,06,24,06,45,11.60
2011,06,24,06,46,11.60
2011,06,24,06,47,11.60
2011,06,24,06,48,11.60
2011,06,24,06,49,11.60
2011,06,24,06,50,11.60
2011,06,24,06,51,11.60
2011,06,24,06,52,11.60
2011,06,24,06,53,11.60
2011,06,24,06,54,11.60
2011,06,24,06,55,11.60
2011,06,24,06,56,11.60
2011,06,24,06,57,11.60
2011,06,24,06,58,11.60
2011,06,24,06,59,11.70
2011,06,24,07,00,11.70
2011,06,24,07,01,11.70
2011,06,24,07,02,11.70
2011,06,24,07,03,11.70
2011,06,24,07,04,11.80
2011,06,24,07,05,11.80
2011,06,24,07,06,11.80
2011,06,24,07,07,11.80
2011,06,24,07,08,11.80
2011,06,24,07,09,11.80
2011,06,24,07,10,11.80
2011,06,24,07,11,11.80
2011,06,24,07,12,11.90
2011,06,24,07,13,11.90
2011,06,24,07,14,11.90
2011,06,24,07,15,11.90
2011,06,24,07,16,11.90
2011,06,24,07,17,11.90
2011,06,24,07,18,12.00
2011,06,24,07,19,12.00
2011,06,24,07,20,12.00
2011,06,24,07,21,12.10
2011,06,24,07,22,12.10
2011,06,24,07,23,12.10
2011,06,24,07,24,12.20
2011,06,24,07,25,12.20
2011,06,24,07,26,12.20
2011,06,24,07,27,12.20
2011,06,24,07,28,12.20
2011,06,24,07,29,12.20
2011,06,24,07,30,12.20
2011,06,24,07,31,12.30
2011,06,24,07,32,12.30
2011,06,24,07,33,12.30
2011,06,24,07,34,12.30
2011,06,24,07,35,12.40
2011,06,24,07,36,12.40
2011,06,24,07,37,12.50
2011,06,24,07,38,12.50
2011,06,24,07,39,12.60
2011,06,24,07,40,12.70
2011,06,24,07,41,12.70
2011,06,24,07,42,12.80
2011,06,24,07,43,12.90
2011,06,24,07,44,12.90
2011,06,24,07,45,13.00
2011,06,24,07,46,13.00
2011,06,24,07,47,13.10
2011,06,24,07,48,13.10
2011,06,24,07,49,13.10
2011,06,24,07,50,13.20
2011,06,24,07,51,13.20
2011,06,24,07,52,13.20
2011,06,24,07,53,13.20
2011,06,24,07,54,13.20
2011,06,24,07,55,13.20
2011,06,24,07,56,13.20
2011,06,24,07,57,13.30
2011,06,24,07,58,13.30
2011,06,24,07,59,13.30
2011,06,24,08,00,13.20
2011,06,24,08,01,13.20
2011,06,24,08,02,13.30
2011,06,24,08,03,13.30
2011,06,24,08,04,13.30
2011,06,24,08,05,13.30
2011,06,24,08,06,13.30
2011,06,24,08,07,13.30
2011,06,24,08,08,13.30
2011,06,24,08,09,13.30
2011,06,24,08,10,13.40
2011,06,24,08,11,13.50
2011,06,24,08,12,13.60
2011,06,24,08,13,13.70
2011,06,24,08,14,13.80
2011,06,24,08,15,14.00
2011,06,24,08,16,14.10
2011,06,24,08,17,14.20
2011,06,24,08,18,14.20
2011,06,24,08,19,14.30
2011,06,24,08,20,14.40
2011,06,24,08,21,14.40
2011,06,24,08,22,14.40
2011,06,24,08,23,14.40
2011,06,24,08,24,14.30
2011,06,24,08,25,14.30
2011,06,24,08,26,14.30
2011,06,24,08,27,14.30
2011,06,24,08,28,14.30
2011,06,24,08,29,14.40
2011,06,24,08,30,14.40
2011,06,24,08,31,14.50
2011,06,24,08,32,14.50
2011,06,24,08,33,14.60
2011,06,24,08,34,14.60
2011,06,24,08,35,14.70
2011,06,24,08,36,14.70
2011,06,24,08,37,14.60
2011,06,24,08,38,14.60
2011,06,24,08,39,14.60
2011,06,24,08,40,14.70
2011,06,24,08,41,14.70
2011,06,24,08,42,14.80
2011,06,24,08,43,14.80
2011,06,24,08,44,14.80
2011,06,24,08,45,14.80
2011,06,24,08,46,14.80
2011,06,24,08,47,14.80
2011,06,24,08,48,14.80
2011,06,24,08,49,14.90
2011,06,24,08,50,15.00
2011,06,24,08,51,15.00
2011,06,24,08,52,15.20
2011,06,24,08,53,15.20
2011,06,24,08,54,15.20
2011,06,24,08,55,15.20
2011,06,24,08,56,15.20
2011,06,24,08,57,15.30
2011,06,24,08,58,15.30
2011,06,24,08,59,15.40
2011,06,24,09,00,15.50
2011,06,24,09,01,15.50
2011,06,24,09,02,15.60
2011,06,24,09,03,15.60
2011,06,24,09,04,15.60
2011,06,24,09,05,15.60
2011,06,24,09,06,15.70
2011,06,24,09,07,15.70
2011,06,24,09,08,15.70
2011,06,24,09,09,15.80
2011,06,24,09,10,15.80
2011,06,24,09,11,15.90
2011,06,24,09,12,15.90
2011,06,24,09,13,15.80
2011,06,24,09,14,15.80
2011,06,24,09,15,15.80
2011,06,24,09,16,15.80
2011,06,24,09,17,15.90
2011,06,24,09,18,15.90
2011,06,24,09,19,16.00
2011,06,24,09,20,16.10
2011,06,24,09,21,16.10
2011,06,24,09,22,16.20
2011,06,24,09,23,16.30
2011,06,24,09,24,16.30
2011,06,24,09,25,16.30
2011,06,24,09,26,16.20
2011,06,24,09,27,16.30
2011,06,24,09,28,16.20
2011,06,24,09,29,16.10
2011,06,24,09,30,16.10
2011,06,24,09,31,16.10
2011,06,24,09,32,16.10
2011,06,24,09,33,16.10
2011,06,24,09,34,16.00
2011,06,24,09,35,15.90
2011,06,24,09,36,15.90
2011,06,24,09,37,15.80
2011,06,24,09,38,15.80
2011,06,24,09,39,15.70
2011,06,24,09,40,15.60
2011,06,24,09,41,15.50
2011,06,24,09,42,15.50
2011,06,24,09,43,15.50
2011,06,24,09,44,15.50
2011,06,24,09,45,15.50
2011,06,24,09,46,15.50
2011,06,24,09,47,15.50
2011,06,24,09,48,15.50
2011,06,24,09,49,15.50
2011,06,24,09,50,15.60
2011,06,24,09,51,15.80
2011,06,24,09,52,16.00
2011,06,24,09,53,16.20
2011,06,24,09,54,16.30
2011,06,24,09,55,16.50
2011,06,24,09,56,16.60
2011,06,24,09,57,16.70
2011,06,24,09,58,16.80
2011,06,24,09,59,16.90
2011,06,24,10,00,16.80
2011,06,24,10,01,16.80
2011,06,24,10,02,16.70
2011,06,24,10,03,16.70
2011,06,24,10,04,16.60
2011,06,24,10,05,16.50
2011,06,24,10,06,16.40
2011,06,24,10,07,16.30
2011,06,24,10,08,16.20
2011,06,24,10,09,16.10
2011,06,24,10,10,16.00
2011,06,24,10,11,15.90
2011,06,24,10,12,15.80
2011,06,24,10,13,15.80
2011,06,24,10,14,15.80
2011,06,24,10,15,15.70
2011,06,24,10,16,15.70
2011,06,24,10,17,15.60
2011,06,24,10,18,15.60
2011,06,24,10,19,15.50
2011,06,24,10,20,15.50
2011,06,24,10,21,15.50
2011,06,24,10,22,15.50
2011,06,24,10,23,15.60
2011,06,24,10,24,15.50
2011,06,24,10,25,15.50
2011,06,24,10,26,15.50
2011,06,24,10,27,15.50
2011,06,24,10,28,15.50
2011,06,24,10,29,15.50
2011,06,24,10,30,15.50
2011,06,24,10,31,15.50
2011,06,24,10,32,15.50
2011,06,24,10,33,15.50
2011,06,24,10,34,15.50
2011,06,24,10,35,15.50
2011,06,24,10,36,15.50
2011,06,24,10,37,15.50
2011,06,24,10,38,15.50
2011,06,24,10,39,15.50
2011,06,24,10,40,15.50
2011,06,24,10,41,15.60
2011,06,24,10,42,15.60
2011,06,24,10,43,15.60
2011,06,24,10,44,15.60
2011,06,24,10,45,15.70
2011,06,24,10,46,15.70
2011,06,24,10,47,15.70
2011,06,24,10,48,15.60
2011,06,24,10,49,15.70
2011,06,24,10,50,15.70
2011,06,24,10,51,15.70
2011,06,24,10,52,15.70
2011,06,24,10,53,15.70
2011,06,24,10,54,15.80
2011,06,24,10,55,15.80
2011,06,24,10,56,15.80
2011,06,24,10,57,15.80
2011,06,24,10,58,15.80
2011,06,24,10,59,15.90
2011,06,24,11,00,16.00
2011,06,24,11,01,16.10
2011,06,24,11,02,16.10
2011,06,24,11,03,16.10
2011,06,24,11,04,16.00
2011,06,24,11,05,15.90
2011,06,24,11,06,15.90
2011,06,24,11,07,15.90
2011,06,24,11,08,15.90
2011,06,24,11,09,15.90
2011,06,24,11,10,15.90
2011,06,24,11,11,15.90
2011,06,24,11,12,15.90
2011,06,24,11,13,15.90
2011,06,24,11,14,15.80
2011,06,24,11,15,15.80
2011,06,24,11,16,15.90
2011,06,24,11,17,15.90
2011,06,24,11,18,15.90
2011,06,24,11,19,15.90
2011,06,24,11,20,15.90
2011,06,24,11,21,15.90
2011,06,24,11,22,15.90
2011,06,24,11,23,16.00
2011,06,24,11,24,16.10
2011,06,24,11,25,16.10
2011,06,24,11,26,16.10
2011,06,24,11,27,16.20
2011,06,24,11,28,16.20
2011,06,24,11,29,16.30
2011,06,24,11,30,16.30
2011,06,24,11,31,16.40
2011,06,24,11,32,16.40
2011,06,24,11,33,16.50
2011,06,24,11,34,16.70
2011,06,24,11,35,16.80
2011,06,24,11,36,17.00
2011,06,24,11,37,17.30
2011,06,24,11,38,17.30
2011,06,24,11,39,17.20
2011,06,24,11,40,17.20
2011,06,24,11,41,17.10
2011,06,24,11,42,17.00
2011,06,24,11,43,17.00
2011,06,24,11,44,16.90
2011,06,24,11,45,16.80
2011,06,24,11,46,16.80
2011,06,24,11,47,16.70
2011,06,24,11,48,16.70
2011,06,24,11,49,16.70
2011,06,24,11,50,16.70
2011,06,24,11,51,16.70
2011,06,24,11,52,16.70
2011,06,24,11,53,16.70
2011,06,24,11,54,16.70
2011,06,24,11,55,16.60
2011,06,24,11,56,16.60
2011,06,24,11,57,16.60
2011,06,24,11,58,16.60
2011,06,24,11,59,16.70
2011,06,24,12,00,16.70
2011,06,24,12,01,16.70
2011,06,24,12,02,16.70
2011,06,24,12,03,16.70
2011,06,24,12,04,16.70
2011,06,24,12,05,16.70
2011,06,24,12,06,16.70
2011,06,24,12,07,16.60
2011,06,24,12,08,16.60
2011,06,24,12,09,16.60
2011,06,24,12,10,16.60
2011,06,24,12,11,16.70
2011,06,24,12,12,16.70
2011,06,24,12,13,16.70
2011,06,24,12,14,16.60
2011,06,24,12,15,16.50
2011,06,24,12,16,16.40
2011,06,24,12,17,16.30
2011,06,24,12,18,16.20
2011,06,24,12,19,16.10
2011,06,24,12,20,16.00
2011,06,24,12,21,15.90
2011,06,24,12,22,15.80
2011,06,24,12,23,15.60
2011,06,24,12,24,15.50
2011,06,24,12,25,15.40
2011,06,24,12,26,15.30
2011,06,24,12,27,15.30
2011,06,24,12,28,15.30
2011,06,24,12,29,15.30
2011,06,24,12,30,15.40
2011,06,24,12,31,15.50
2011,06,24,12,32,15.60
2011,06,24,12,33,15.70
2011,06,24,12,34,15.60
2011,06,24,12,35,15.60
2011,06,24,12,36,15.60
2011,06,24,12,37,15.60
2011,06,24,12,38,15.60
2011,06,24,12,39,15.60
2011,06,24,12,40,15.60
2011,06,24,12,41,15.60
2011,06,24,12,42,15.50
2011,06,24,12,43,15.50
2011,06,24,12,44,15.40
2011,06,24,12,45,15.30
2011,06,24,12,46,15.30
2011,06,24,12,47,15.30
2011,06,24,12,48,15.30
2011,06,24,12,49,15.20
2011,06,24,12,50,15.20
2011,06,24,12,51,15.10
2011,06,24,12,52,15.10
2011,06,24,12,53,15.00
2011,06,24,12,54,15.00
2011,06,24,12,55,15.00
2011,06,24,12,56,15.00
2011,06,24,12,57,15.00
2011,06,24,12,58,15.00
2011,06,24,12,59,15.10
2011,06,24,13,00,15.10
2011,06,24,13,01,15.10
2011,06,24,13,02,15.10
2011,06,24,13,03,15.10
2011,06,24,13,04,15.00
2011,06,24,13,05,15.00
2011,06,24,13,06,15.00
2011,06,24,13,07,15.00
2011,06,24,13,08,15.00
2011,06,24,13,09,15.00
2011,06,24,13,10,15.00
2011,06,24,13,11,15.00
2011,06,24,13,12,15.10
2011,06,24,13,13,15.10
2011,06,24,13,14,15.20
2011,06,24,13,15,15.20
2011,06,24,13,16,15.30
2011,06,24,13,17,15.30
2011,06,24,13,18,15.40
2011,06,24,13,19,15.50
2011,06,24,13,20,15.60
2011,06,24,13,21,15.60
2011,06,24,13,22,15.70
2011,06,24,13,23,15.80
2011,06,24,13,24,15.80
2011,06,24,13,25,15.90
2011,06,24,13,26,15.80
2011,06,24,13,27,15.70
2011,06,24,13,28,15.40
2011,06,24,13,29,15.20
2011,06,24,13,30,15.20
2011,06,24,13,31,15.10
2011,06,24,13,32,14.90
2011,06,24,13,33,14.80
2011,06,24,13,34,14.70
2011,06,24,13,35,14.50
2011,06,24,13,36,14.30
2011,06,24,13,37,14.30
2011,06,24,13,38,14.10
2011,06,24,13,39,14.10
2011,06,24,13,40,14.10
2011,06,24,13,41,13.90
2011,06,24,13,42,13.90
2011,06,24,13,43,13.80
2011,06,24,13,44,13.80
2011,06,24,13,45,13.70
2011,06,24,13,46,13.70
2011,06,24,13,47,13.80
2011,06,24,13,48,13.80
2011,06,24,13,49,13.70
2011,06,24,13,50,13.60
2011,06,24,13,51,13.50
2011,06,24,13,52,13.50
2011,06,24,13,53,13.60
2011,06,24,13,54,13.60
2011,06,24,13,55,13.50
2011,06,24,13,56,13.40
2011,06,24,13,57,13.50
2011,06,24,13,58,13.50
2011,06,24,13,59,13.50
2011,06,24,14,00,13.50
2011,06,24,14,01,13.50
2011,06,24,14,02,13.50
2011,06,24,14,03,13.60
2011,06,24,14,04,13.70
2011,06,24,14,05,13.70
2011,06,24,14,06,13.70
2011,06,24,14,07,13.70
2011,06,24,14,08,13.70
2011,06,24,14,09,13.70
2011,06,24,14,10,13.70
2011,06,24,14,11,13.70
2011,06,24,14,12,13.70
2011,06,24,14,13,13.70
2011,06,24,14,14,13.70
2011,06,24,14,15,13.70
2011,06,24,14,16,13.70
2011,06,24,14,17,13.70
2011,06,24,14,18,13.60
2011,06,24,14,19,13.50
2011,06,24,14,20,13.50
2011,06,24,14,21,13.50
2011,06,24,14,22,13.40
2011,06,24,14,23,13.40
2011,06,24,14,24,13.40
2011,06,24,14,25,13.40
2011,06,24,14,26,13.40
2011,06,24,14,27,13.40
2011,06,24,14,28,13.50
2011,06,24,14,29,13.50
2011,06,24,14,30,13.50
2011,06,24,14,31,13.50
2011,06,24,14,32,13.60
2011,06,24,14,33,13.60
2011,06,24,14,34,13.70
2011,06,24,14,35,13.60
2011,06,24,14,36,13.70
2011,06,24,14,37,13.80
2011,06,24,14,38,13.80
2011,06,24,14,39,13.90
2011,06,24,14,40,13.90
2011,06,24,14,41,14.00
2011,06,24,14,42,14.00
2011,06,24,14,43,13.90
2011,06,24,14,44,13.90
2011,06,24,14,45,14.00
2011,06,24,14,46,14.00
2011,06,24,14,47,13.90
2011,06,24,14,48,14.00
2011,06,24,14,49,14.00
2011,06,24,14,50,14.00
2011,06,24,14,51,14.00
2011,06,24,14,52,14.10
2011,06,24,14,53,14.10
2011,06,24,14,54,14.20
2011,06,24,14,55,14.20
2011,06,24,14,56,14.20
2011,06,24,14,57,14.20
2011,06,24,14,58,14.20
2011,06,24,14,59,14.20
2011,06,24,15,00,14.20
2011,06,24,15,01,14.20
2011,06,24,15,02,14.20
2011,06,24,15,03,14.20
2011,06,24,15,04,14.10
2011,06,24,15,05,14.00
2011,06,24,15,06,14.00
2011,06,24,15,07,14.00
2011,06,24,15,08,14.00
2011,06,24,15,09,14.00
2011,06,24,15,10,14.00
2011,06,24,15,11,13.90
2011,06,24,15,12,14.00
2011,06,24,15,13,14.00
2011,06,24,15,14,14.10
2011,06,24,15,15,14.10
2011,06,24,15,16,14.00
2011,06,24,15,17,14.00
2011,06,24,15,18,13.90
2011,06,24,15,19,14.00
2011,06,24,15,20,14.10
2011,06,24,15,21,14.20
2011,06,24,15,22,14.10
2011,06,24,15,23,14.10
2011,06,24,15,24,14.00
2011,06,24,15,25,14.00
2011,06,24,15,26,14.00
2011,06,24,15,27,14.00
2011,06,24,15,28,13.90
2011,06,24,15,29,13.70
2011,06,24,15,30,13.70
2011,06,24,15,31,13.80
2011,06,24,15,32,13.80
2011,06,24,15,33,13.70
2011,06,24,15,34,13.70
2011,06,24,15,35,13.70
2011,06,24,15,36,13.70
2011,06,24,15,37,13.70
2011,06,24,15,38,13.70
2011,06,24,15,39,13.60
2011,06,24,15,40,13.50
2011,06,24,15,41,13.40
2011,06,24,15,42,13.40
2011,06,24,15,43,13.40
2011,06,24,15,44,13.40
2011,06,24,15,45,13.40
2011,06,24,15,46,13.40
2011,06,24,15,47,13.40
2011,06,24,15,48,13.40
2011,06,24,15,49,13.40
2011,06,24,15,50,13.40
2011,06,24,15,51,13.40
2011,06,24,15,52,13.40
2011,06,24,15,53,13.40
2011,06,24,15,54,13.40
2011,06,24,15,55,13.40
2011,06,24,15,56,13.40
2011,06,24,15,57,13.30
2011,06,24,15,58,13.30
2011,06,24,15,59,13.30
2011,06,24,16,00,13.30
2011,06,24,16,01,13.30
2011,06,24,16,02,13.30
2011,06,24,16,03,13.30
2011,06,24,16,04,13.30
2011,06,24,16,05,13.30
2011,06,24,16,06,13.30
2011,06,24,16,07,13.30
2011,06,24,16,08,13.30
2011,06,24,16,09,13.30
2011,06,24,16,10,13.30
2011,06,24,16,11,13.30
2011,06,24,16,12,13.30
2011,06,24,16,13,13.30
2011,06,24,16,14,13.40
2011,06,24,16,15,13.40
2011,06,24,16,16,13.40
2011,06,24,16,17,13.50
2011,06,24,16,18,13.40
2011,06,24,16,19,13.40
2011,06,24,16,20,13.40
2011,06,24,16,21,13.40
2011,06,24,16,22,13.40
2011,06,24,16,23,13.40
2011,06,24,16,24,13.50
2011,06,24,16,25,13.60
2011,06,24,16,26,13.60
2011,06,24,16,27,13.60
2011,06,24,16,28,13.60
2011,06,24,16,29,13.60
2011,06,24,16,30,13.70
2011,06,24,16,31,13.70
2011,06,24,16,32,13.70
2011,06,24,16,33,13.70
2011,06,24,16,34,13.70
2011,06,24,16,35,13.70
2011,06,24,16,36,13.60
2011,06,24,16,37,13.60
2011,06,24,16,38,13.50
2011,06,24,16,39,13.50
2011,06,24,16,40,13.40
2011,06,24,16,41,13.40
2011,06,24,16,42,13.40
2011,06,24,16,43,13.40
2011,06,24,16,44,13.50
2011,06,24,16,45,13.50
2011,06,24,16,46,13.60
2011,06,24,16,47,13.60
2011,06,24,16,48,13.70
2011,06,24,16,49,13.70
2011,06,24,16,50,13.70
2011,06,24,16,51,13.70
2011,06,24,16,52,13.70
2011,06,24,16,53,13.70
2011,06,24,16,54,13.60
2011,06,24,16,55,13.60
2011,06,24,16,56,13.60
2011,06,24,16,57,13.60
2011,06,24,16,58,13.60
2011,06,24,16,59,13.70
2011,06,24,17,00,13.70
2011,06,24,17,01,13.60
2011,06,24,17,02,13.60
2011,06,24,17,03,13.60
2011,06,24,17,04,13.70
2011,06,24,17,05,13.70
2011,06,24,17,06,13.70
2011,06,24,17,07,13.70
2011,06,24,17,08,13.70
2011,06,24,17,09,13.70
2011,06,24,17,10,13.80
2011,06,24,17,11,13.80
2011,06,24,17,12,13.80
2011,06,24,17,13,13.80
2011,06,24,17,14,13.80
2011,06,24,17,15,13.70
2011,06,24,17,16,13.70
2011,06,24,17,17,13.70
2011,06,24,17,18,13.70
2011,06,24,17,19,13.60